WXM80 ListenWXM80 Stop

You find our weather info also at:

UK Metoffice

WeatherCloud

Weather Underground

Northeastern Weather Network

AWEKAS

Citizen Weather Observer Program (CWOP)

HAMweather, WeatherForYou, PWS Weather


Weather Underground History page Text

Daily Summary for January 9, 2017 Units:  English    Metric   Both
« Previous Day
Next Day »
Daily Weekly Monthly Yearly Custom
  High: Low: Average:
Temperature: 24.0 °F 14.4 °F 18.8 °F
Dew Point: 12.2 °F 7.2 °F 9.7 °F
Humidity: 84 % 55 % 68 %
Wind Speed: 8.7 mph 0.0 mph 2.4 mph
Wind Gust: 29.0 mph - -
Wind:- - West
Pressure: 30.74 in 30.55 in -
Precipitation: 0.00 in    
Historical Graphs
 
 
Tabular Data for January 9, 2017
Time Temperature Dew Point Pressure Wind Wind Speed Wind Gust Humidity Rainfall Rate (Hourly)
00:02 19.2 °F 9.0 °F 30.55 in WSW 6.6 mph 29.0 mph 64 % 0.00 in
00:07 19.1 °F 9.3 °F 30.56 in WNW 7.9 mph 29.0 mph 65 % 0.00 in
00:12 19.1 °F 8.9 °F 30.56 in NW 7.2 mph 29.0 mph 64 % 0.00 in
00:17 19.0 °F 8.8 °F 30.56 in WNW 7.7 mph 29.0 mph 64 % 0.00 in
00:22 19.0 °F 9.2 °F 30.56 in West 6.9 mph 29.0 mph 65 % 0.00 in
00:27 18.9 °F 8.7 °F 30.56 in NNW 5.8 mph 29.0 mph 64 % 0.00 in
00:33 18.9 °F 9.1 °F 30.57 in NE 3.0 mph 29.0 mph 65 % 0.00 in
00:38 18.9 °F 8.7 °F 30.56 in WNW 6.4 mph 29.0 mph 64 % 0.00 in
00:43 18.8 °F 8.6 °F 30.57 in NW 8.7 mph 29.0 mph 64 % 0.00 in
00:48 18.7 °F 8.9 °F 30.57 in WNW 4.7 mph 29.0 mph 65 % 0.00 in
00:53 18.7 °F 8.9 °F 30.57 in WNW 8.1 mph 29.0 mph 65 % 0.00 in
00:58 18.6 °F 9.1 °F 30.57 in WNW 5.2 mph 29.0 mph 66 % 0.00 in
01:03 18.6 °F 9.1 °F 30.57 in WSW 7.1 mph 29.0 mph 66 % 0.00 in
01:08 18.5 °F 8.7 °F 30.57 in West 5.4 mph 29.0 mph 65 % 0.00 in
01:13 18.5 °F 9.0 °F 30.57 in WNW 7.7 mph 29.0 mph 66 % 0.00 in
01:18 18.4 °F 8.6 °F 30.58 in NNW 3.7 mph 29.0 mph 65 % 0.00 in
01:23 18.3 °F 8.8 °F 30.58 in WNW 8.3 mph 29.0 mph 66 % 0.00 in
01:28 18.2 °F 8.4 °F 30.58 in West 3.5 mph 29.0 mph 65 % 0.00 in
01:33 18.2 °F 8.7 °F 30.58 in NW 6.1 mph 29.0 mph 66 % 0.00 in
01:38 18.1 °F 8.6 °F 30.59 in NNW 2.7 mph 29.0 mph 66 % 0.00 in
01:43 18.1 °F 8.6 °F 30.59 in WNW 7.4 mph 29.0 mph 66 % 0.00 in
01:48 18.0 °F 8.5 °F 30.59 in NW 5.7 mph 29.0 mph 66 % 0.00 in
01:54 18.0 °F 8.5 °F 30.60 in NW 4.3 mph 29.0 mph 66 % 0.00 in
01:59 18.0 °F 8.5 °F 30.60 in West 3.8 mph 29.0 mph 66 % 0.00 in
02:04 17.9 °F 8.5 °F 30.60 in WSW 1.9 mph 29.0 mph 66 % 0.00 in
02:09 17.8 °F 8.4 °F 30.60 in WNW 4.3 mph 29.0 mph 66 % 0.00 in
02:14 17.7 °F 8.3 °F 30.60 in West 5.1 mph 29.0 mph 66 % 0.00 in
02:19 17.7 °F 8.3 °F 30.61 in NW 2.6 mph 29.0 mph 66 % 0.00 in
02:24 17.6 °F 8.2 °F 30.61 in WNW 3.0 mph 8.0 mph 66 % 0.00 in
02:29 17.5 °F 8.1 °F 30.61 in WNW 3.0 mph 9.0 mph 66 % 0.00 in
02:34 17.5 °F 8.1 °F 30.61 in WNW 2.0 mph 10.0 mph 66 % 0.00 in
02:39 17.5 °F 8.1 °F 30.61 in NNW 4.4 mph 29.0 mph 66 % 0.00 in
02:44 17.5 °F 8.1 °F 30.61 in WNW 6.0 mph 10.0 mph 66 % 0.00 in
02:49 17.4 °F 8.0 °F 30.61 in NW 6.2 mph 29.0 mph 66 % 0.00 in
02:54 17.4 °F 7.9 °F 30.62 in West 7.0 mph 12.0 mph 66 % 0.00 in
02:59 17.3 °F 7.5 °F 30.61 in NW 2.0 mph 29.0 mph 65 % 0.00 in
03:04 17.3 °F 7.2 °F 30.61 in West 5.7 mph 29.0 mph 64 % 0.00 in
03:09 17.3 °F 7.2 °F 30.61 in WNW 5.0 mph 29.0 mph 64 % 0.00 in
03:14 17.2 °F 7.4 °F 30.61 in NW 3.4 mph 29.0 mph 65 % 0.00 in
03:19 17.1 °F 7.3 °F 30.61 in WSW 1.9 mph 29.0 mph 65 % 0.00 in
03:24 17.0 °F 7.3 °F 30.61 in NW 2.3 mph 29.0 mph 65 % 0.00 in
03:29 16.9 °F 7.5 °F 30.61 in NW 4.2 mph 29.0 mph 66 % 0.00 in
03:34 16.9 °F 7.5 °F 30.61 in West 2.6 mph 29.0 mph 66 % 0.00 in
03:39 16.8 °F 7.4 °F 30.61 in WNW 0.9 mph 29.0 mph 66 % 0.00 in
03:45 16.8 °F 7.4 °F 30.61 in WNW 4.1 mph 29.0 mph 66 % 0.00 in
03:50 16.7 °F 7.6 °F 30.62 in SW 2.8 mph 29.0 mph 67 % 0.00 in
03:55 16.7 °F 7.6 °F 30.62 in West 1.4 mph 29.0 mph 67 % 0.00 in
04:00 16.6 °F 7.5 °F 30.61 in WSW 4.7 mph 29.0 mph 67 % 0.00 in
04:05 16.5 °F 7.4 °F 30.62 in West 2.8 mph 29.0 mph 67 % 0.00 in
04:10 16.5 °F 7.8 °F 30.62 in West 3.2 mph 29.0 mph 68 % 0.00 in
04:15 16.5 °F 7.8 °F 30.62 in West 3.7 mph 29.0 mph 68 % 0.00 in
04:20 16.4 °F 7.7 °F 30.63 in West 5.7 mph 29.0 mph 68 % 0.00 in
04:25 16.4 °F 7.7 °F 30.63 in WNW 4.0 mph 29.0 mph 68 % 0.00 in
04:30 16.5 °F 8.1 °F 30.63 in WNW 4.4 mph 29.0 mph 69 % 0.00 in
04:35 16.5 °F 8.1 °F 30.63 in West 3.4 mph 29.0 mph 69 % 0.00 in
04:40 16.4 °F 8.0 °F 30.63 in WSW 2.4 mph 29.0 mph 69 % 0.00 in
04:45 16.4 °F 8.0 °F 30.63 in West 5.1 mph 29.0 mph 69 % 0.00 in
04:51 16.4 °F 8.0 °F 30.63 in West 3.8 mph 29.0 mph 69 % 0.00 in
04:56 16.5 °F 8.1 °F 30.64 in West 2.8 mph 29.0 mph 69 % 0.00 in
05:01 16.5 °F 8.1 °F 30.63 in WNW 3.4 mph 29.0 mph 69 % 0.00 in
05:06 16.5 °F 8.1 °F 30.64 in NW 6.2 mph 29.0 mph 69 % 0.00 in
05:11 16.5 °F 8.1 °F 30.64 in NW 4.9 mph 29.0 mph 69 % 0.00 in
05:16 16.6 °F 8.5 °F 30.65 in WNW 4.5 mph 29.0 mph 70 % 0.00 in
05:21 16.6 °F 8.5 °F 30.65 in West 5.4 mph 29.0 mph 70 % 0.00 in
05:26 16.6 °F 8.2 °F 30.65 in West 3.0 mph 29.0 mph 69 % 0.00 in
05:31 16.6 °F 8.2 °F 30.65 in NW 7.2 mph 29.0 mph 69 % 0.00 in
05:36 16.7 °F 8.3 °F 30.65 in WNW 1.9 mph 29.0 mph 69 % 0.00 in
05:41 16.7 °F 8.3 °F 30.65 in WNW 3.1 mph 29.0 mph 69 % 0.00 in
05:46 16.7 °F 8.3 °F 30.65 in NNW 4.9 mph 29.0 mph 69 % 0.00 in
05:51 16.6 °F 7.9 °F 30.65 in WNW 4.1 mph 29.0 mph 68 % 0.00 in
05:56 16.6 °F 7.9 °F 30.65 in WNW 5.9 mph 29.0 mph 68 % 0.00 in
06:01 16.6 °F 8.2 °F 30.65 in WNW 3.5 mph 29.0 mph 69 % 0.00 in
06:06 16.6 °F 8.2 °F 30.66 in WNW 4.1 mph 29.0 mph 69 % 0.00 in
06:12 16.6 °F 7.9 °F 30.65 in NW 4.6 mph 29.0 mph 68 % 0.00 in
06:17 16.6 °F 7.9 °F 30.65 in WNW 1.9 mph 29.0 mph 68 % 0.00 in
06:22 16.5 °F 8.1 °F 30.65 in WNW 5.7 mph 29.0 mph 69 % 0.00 in
06:27 16.5 °F 8.1 °F 30.65 in NNW 3.6 mph 29.0 mph 69 % 0.00 in
06:32 16.4 °F 8.0 °F 30.65 in NW 3.8 mph 29.0 mph 69 % 0.00 in
06:37 16.4 °F 7.7 °F 30.65 in WSW 3.6 mph 29.0 mph 68 % 0.00 in
06:42 16.3 °F 7.9 °F 30.65 in WNW 2.8 mph 29.0 mph 69 % 0.00 in
06:47 16.3 °F 7.9 °F 30.65 in WNW 3.4 mph 29.0 mph 69 % 0.00 in
06:52 16.2 °F 7.5 °F 30.65 in WNW 1.9 mph 29.0 mph 68 % 0.00 in
06:57 16.1 °F 7.7 °F 30.64 in NW 2.2 mph 29.0 mph 69 % 0.00 in
07:02 16.1 °F 7.7 °F 30.65 in NW 1.3 mph 29.0 mph 69 % 0.00 in
07:07 16.1 °F 7.7 °F 30.64 in WNW 1.3 mph 29.0 mph 69 % 0.00 in
07:12 16.0 °F 7.9 °F 30.65 in NW 3.0 mph 29.0 mph 70 % 0.00 in
07:17 15.9 °F 7.8 °F 30.65 in WNW 3.6 mph 29.0 mph 70 % 0.00 in
07:22 16.0 °F 7.9 °F 30.65 in NW 1.8 mph 29.0 mph 70 % 0.00 in
07:27 16.0 °F 8.3 °F 30.65 in WNW 2.8 mph 29.0 mph 71 % 0.00 in
07:32 16.0 °F 8.3 °F 30.66 in WNW 2.2 mph 29.0 mph 71 % 0.00 in
07:38 16.0 °F 8.3 °F 30.66 in WSW 2.3 mph 29.0 mph 71 % 0.00 in
07:43 16.1 °F 8.3 °F 30.66 in WSW 1.0 mph 29.0 mph 71 % 0.00 in
07:48 16.1 °F 8.3 °F 30.66 in West 2.3 mph 29.0 mph 71 % 0.00 in
07:53 16.2 °F 8.1 °F 30.66 in WNW 2.6 mph 29.0 mph 70 % 0.00 in
07:58 16.3 °F 8.2 °F 30.66 in West 2.8 mph 29.0 mph 70 % 0.00 in
08:01 16.4 °F 8.0 °F 30.66 in West 1.6 mph 29.0 mph 69 % 0.00 in
08:06 16.6 °F 8.2 °F 30.66 in West 0.6 mph 29.0 mph 69 % 0.00 in
08:11 16.7 °F 8.3 °F 30.67 in West 1.2 mph 29.0 mph 69 % 0.00 in
08:16 16.8 °F 8.4 °F 30.67 in SW 2.7 mph 29.0 mph 69 % 0.00 in
08:21 17.0 °F 8.9 °F 30.67 in SW 0.1 mph 29.0 mph 70 % 0.00 in
08:26 17.1 °F 9.0 °F 30.68 in SW 1.5 mph 29.0 mph 70 % 0.00 in
08:31 17.3 °F 9.5 °F 30.68 in SW 1.4 mph 29.0 mph 71 % 0.00 in
08:36 17.4 °F 9.6 °F 30.69 in SW 2.7 mph 29.0 mph 71 % 0.00 in
08:41 17.6 °F 9.5 °F 30.69 in WSW 2.1 mph 29.0 mph 70 % 0.00 in
08:46 17.9 °F 9.8 °F 30.69 in SW 3.4 mph 29.0 mph 70 % 0.00 in
08:51 18.1 °F 10.0 °F 30.69 in WSW 1.6 mph 29.0 mph 70 % 0.00 in
08:56 18.4 °F 10.2 °F 30.70 in SW 3.9 mph 29.0 mph 70 % 0.00 in
09:01 18.6 °F 10.4 °F 30.70 in WSW 3.6 mph 29.0 mph 70 % 0.00 in
09:06 18.9 °F 10.4 °F 30.70 in West 2.3 mph 29.0 mph 69 % 0.00 in
09:12 19.2 °F 10.7 °F 30.71 in SW 3.0 mph 29.0 mph 69 % 0.00 in
09:17 19.5 °F 11.0 °F 30.71 in WNW 1.7 mph 29.0 mph 69 % 0.00 in
09:22 19.7 °F 10.8 °F 30.72 in WNW 2.1 mph 29.0 mph 68 % 0.00 in
09:27 19.9 °F 11.0 °F 30.72 in West 4.5 mph 29.0 mph 68 % 0.00 in
09:32 20.0 °F 10.8 °F 30.72 in WSW 4.2 mph 29.0 mph 67 % 0.00 in
09:37 20.1 °F 10.6 °F 30.73 in WNW 3.3 mph 29.0 mph 66 % 0.00 in
09:42 20.1 °F 10.2 °F 30.73 in WSW 4.3 mph 29.0 mph 65 % 0.00 in
09:47 20.1 °F 10.2 °F 30.73 in WNW 2.4 mph 29.0 mph 65 % 0.00 in
09:52 20.2 °F 10.3 °F 30.73 in WSW 3.5 mph 29.0 mph 65 % 0.00 in
09:57 20.3 °F 10.4 °F 30.73 in NW 5.6 mph 29.0 mph 65 % 0.00 in
10:02 20.4 °F 10.5 °F 30.74 in West 4.9 mph 29.0 mph 65 % 0.00 in
10:07 20.5 °F 10.6 °F 30.73 in NW 4.6 mph 29.0 mph 65 % 0.00 in
10:13 20.7 °F 10.8 °F 30.73 in NW 3.6 mph 29.0 mph 65 % 0.00 in
10:18 20.8 °F 10.5 °F 30.73 in SW 3.8 mph 29.0 mph 64 % 0.00 in
10:23 20.9 °F 10.6 °F 30.72 in WSW 2.0 mph 29.0 mph 64 % 0.00 in
10:28 21.1 °F 10.5 °F 30.73 in WNW 0.7 mph 29.0 mph 63 % 0.00 in
10:33 21.2 °F 10.6 °F 30.72 in WSW 3.1 mph 29.0 mph 63 % 0.00 in
10:38 21.4 °F 11.1 °F 30.72 in SW 3.2 mph 29.0 mph 64 % 0.00 in
10:43 21.5 °F 10.8 °F 30.72 in West 3.6 mph 29.0 mph 63 % 0.00 in
10:48 21.6 °F 10.9 °F 30.71 in West 3.5 mph 29.0 mph 63 % 0.00 in
10:53 21.4 °F 10.4 °F 30.71 in NW 3.6 mph 29.0 mph 62 % 0.00 in
10:58 21.5 °F 10.8 °F 30.71 in West 1.9 mph 29.0 mph 63 % 0.00 in
11:03 21.6 °F 10.9 °F 30.71 in WNW 5.1 mph 29.0 mph 63 % 0.00 in
11:08 21.8 °F 10.8 °F 30.70 in SSW 1.1 mph 29.0 mph 62 % 0.00 in
11:13 22.1 °F 11.1 °F 30.70 in NW 3.7 mph 29.0 mph 62 % 0.00 in
11:18 22.3 °F 10.9 °F 30.69 in SSW 2.0 mph 29.0 mph 61 % 0.00 in
11:23 22.5 °F 11.1 °F 30.69 in SW 3.9 mph 29.0 mph 61 % 0.00 in
11:28 22.6 °F 10.8 °F 30.69 in WSW 2.4 mph 29.0 mph 60 % 0.00 in
11:33 22.5 °F 10.7 °F 30.69 in West 5.1 mph 29.0 mph 60 % 0.00 in
11:38 22.4 °F 11.0 °F 30.69 in WSW 2.7 mph 29.0 mph 61 % 0.00 in
11:43 22.6 °F 11.5 °F 30.68 in West 3.4 mph 29.0 mph 62 % 0.00 in
11:48 22.7 °F 11.6 °F 30.68 in SW 3.8 mph 29.0 mph 62 % 0.00 in
11:49 22.7 °F 11.6 °F 30.68 in SW 3.7 mph 29.0 mph 62 % 0.00 in
11:54 22.7 °F 11.6 °F 30.68 in SW 3.2 mph 29.0 mph 62 % 0.00 in
11:59 22.9 °F 11.4 °F 30.67 in WSW 2.8 mph 29.0 mph 61 % 0.00 in
12:04 22.9 °F 11.4 °F 30.67 in West 1.8 mph 29.0 mph 61 % 0.00 in
12:09 22.8 °F 11.3 °F 30.67 in SSW 2.8 mph 29.0 mph 61 % 0.00 in
12:14 22.8 °F 11.0 °F 30.66 in West 2.2 mph 29.0 mph 60 % 0.00 in
12:19 22.7 °F 10.9 °F 30.66 in West 2.5 mph 29.0 mph 60 % 0.00 in
12:24 22.8 °F 10.9 °F 30.66 in West 1.0 mph 4.0 mph 60 % 0.00 in
12:29 22.9 °F 11.1 °F 30.66 in West 1.0 mph 6.0 mph 60 % 0.00 in
12:34 23.0 °F 11.2 °F 30.66 in WNW 1.0 mph 6.0 mph 60 % 0.00 in
12:39 23.0 °F 11.2 °F 30.65 in WNW 1.0 mph 4.0 mph 60 % 0.00 in
12:44 23.0 °F 11.2 °F 30.66 in WNW 2.0 mph 3.0 mph 60 % 0.00 in
12:49 23.1 °F 11.3 °F 30.65 in Calm   3.0 mph 60 % 0.00 in
12:54 23.1 °F 11.3 °F 30.65 in West 2.0 mph 5.0 mph 60 % 0.00 in
12:59 23.2 °F 11.0 °F 30.65 in West 1.0 mph 29.0 mph 59 % 0.00 in
13:04 23.3 °F 11.4 °F 30.65 in West 0.8 mph 29.0 mph 60 % 0.00 in
13:09 23.4 °F 11.2 °F 30.66 in SW 2.1 mph 29.0 mph 59 % 0.00 in
13:14 23.5 °F 11.3 °F 30.66 in WNW 2.3 mph 29.0 mph 59 % 0.00 in
13:19 23.5 °F 11.3 °F 30.66 in West 1.6 mph 29.0 mph 59 % 0.00 in
13:24 23.6 °F 11.4 °F 30.66 in WSW 3.5 mph 29.0 mph 59 % 0.00 in
13:29 23.6 °F 11.4 °F 30.67 in WSW 1.1 mph 29.0 mph 59 % 0.00 in
13:34 23.6 °F 11.7 °F 30.67 in WSW 0.6 mph 29.0 mph 60 % 0.00 in
13:39 23.7 °F 11.4 °F 30.67 in WSW 2.7 mph 29.0 mph 59 % 0.00 in
13:45 23.6 °F 11.4 °F 30.66 in WNW 5.0 mph 29.0 mph 59 % 0.00 in
13:50 23.6 °F 11.4 °F 30.66 in WSW 3.0 mph 29.0 mph 59 % 0.00 in
13:55 23.7 °F 11.4 °F 30.66 in West 1.4 mph 29.0 mph 59 % 0.00 in
14:00 23.9 °F 11.6 °F 30.66 in WSW 1.9 mph 29.0 mph 59 % 0.00 in
14:05 23.9 °F 11.6 °F 30.65 in West 3.6 mph 29.0 mph 59 % 0.00 in
14:10 23.9 °F 11.6 °F 30.65 in West 2.8 mph 29.0 mph 59 % 0.00 in
14:15 23.9 °F 11.6 °F 30.65 in West 2.1 mph 29.0 mph 59 % 0.00 in
14:20 23.9 °F 12.0 °F 30.65 in West 3.3 mph 29.0 mph 60 % 0.00 in
14:25 23.9 °F 11.6 °F 30.66 in Calm   29.0 mph 59 % 0.00 in
14:30 23.9 °F 11.3 °F 30.65 in SW 2.7 mph 29.0 mph 58 % 0.00 in
14:35 23.9 °F 11.3 °F 30.65 in West 3.5 mph 29.0 mph 58 % 0.00 in
14:40 23.9 °F 10.9 °F 30.65 in WSW 1.7 mph 29.0 mph 57 % 0.00 in
14:45 23.9 °F 10.5 °F 30.65 in South 1.4 mph 29.0 mph 56 % 0.00 in
14:50 23.8 °F 10.0 °F 30.65 in SW 2.9 mph 29.0 mph 55 % 0.00 in
14:55 23.8 °F 10.0 °F 30.65 in SW 2.2 mph 29.0 mph 55 % 0.00 in
15:01 23.7 °F 10.3 °F 30.65 in WSW 2.5 mph 29.0 mph 56 % 0.00 in
15:06 23.8 °F 10.4 °F 30.65 in WSW 2.4 mph 29.0 mph 56 % 0.00 in
15:11 23.8 °F 10.8 °F 30.65 in SSW 2.2 mph 29.0 mph 57 % 0.00 in
15:16 23.8 °F 10.4 °F 30.65 in SW 0.6 mph 29.0 mph 56 % 0.00 in
15:21 23.9 °F 10.5 °F 30.64 in SW 0.9 mph 29.0 mph 56 % 0.00 in
15:26 24.0 °F 10.6 °F 30.65 in South 1.6 mph 29.0 mph 56 % 0.00 in
15:31 24.0 °F 10.6 °F 30.64 in SSW 0.2 mph 29.0 mph 56 % 0.00 in
15:36 24.0 °F 10.6 °F 30.65 in SW 0.7 mph 29.0 mph 56 % 0.00 in
15:41 24.0 °F 10.6 °F 30.65 in Calm   29.0 mph 56 % 0.00 in
15:46 24.0 °F 11.0 °F 30.65 in SW 0.5 mph 29.0 mph 57 % 0.00 in
15:51 24.0 °F 10.6 °F 30.65 in SW 2.6 mph 29.0 mph 56 % 0.00 in
15:56 23.9 °F 10.9 °F 30.65 in SW 2.5 mph 29.0 mph 57 % 0.00 in
16:01 23.8 °F 10.4 °F 30.65 in SW 0.9 mph 29.0 mph 56 % 0.00 in
16:07 23.6 °F 10.2 °F 30.66 in WSW 1.5 mph 29.0 mph 56 % 0.00 in
16:12 23.4 °F 10.4 °F 30.66 in SW 1.4 mph 29.0 mph 57 % 0.00 in
16:17 23.2 °F 10.6 °F 30.65 in South 3.3 mph 29.0 mph 58 % 0.00 in
16:22 22.9 °F 10.3 °F 30.65 in SSW 0.6 mph 29.0 mph 58 % 0.00 in
16:27 22.7 °F 10.5 °F 30.65 in Calm   29.0 mph 59 % 0.00 in
16:32 22.5 °F 10.3 °F 30.65 in WSW 0.8 mph 29.0 mph 59 % 0.00 in
16:37 22.3 °F 10.5 °F 30.65 in WSW 0.1 mph 29.0 mph 60 % 0.00 in
16:42 22.2 °F 10.8 °F 30.65 in WSW 0.1 mph 29.0 mph 61 % 0.00 in
16:47 22.0 °F 10.6 °F 30.65 in SSW 1.4 mph 29.0 mph 61 % 0.00 in
16:48 22.0 °F 10.6 °F 30.65 in SSW 0.6 mph 29.0 mph 61 % 0.00 in
16:53 21.8 °F 10.8 °F 30.65 in SSW 0.2 mph 29.0 mph 62 % 0.00 in
16:58 21.6 °F 10.6 °F 30.64 in SSW 0.2 mph 29.0 mph 62 % 0.00 in
17:03 21.4 °F 10.4 °F 30.64 in Calm   29.0 mph 62 % 0.00 in
17:08 21.2 °F 10.6 °F 30.64 in SSW 0.9 mph 29.0 mph 63 % 0.00 in
17:13 21.1 °F 10.5 °F 30.64 in Calm   29.0 mph 63 % 0.00 in
17:18 20.9 °F 10.3 °F 30.64 in Calm   29.0 mph 63 % 0.00 in
17:23 20.8 °F 9.8 °F 30.65 in Calm   29.0 mph 62 % 0.00 in
17:28 20.6 °F 10.3 °F 30.64 in Calm   29.0 mph 64 % 0.00 in
17:33 20.4 °F 10.1 °F 30.64 in Calm   29.0 mph 64 % 0.00 in
17:38 20.2 °F 10.0 °F 30.64 in Calm   29.0 mph 64 % 0.00 in
17:43 19.9 °F 9.7 °F 30.64 in Calm   29.0 mph 64 % 0.00 in
17:49 19.7 °F 10.2 °F 30.64 in Calm   29.0 mph 66 % 0.00 in
17:54 19.4 °F 10.2 °F 30.64 in Calm   29.0 mph 67 % 0.00 in
17:59 19.2 °F 9.7 °F 30.64 in Calm   29.0 mph 66 % 0.00 in
18:04 18.9 °F 9.7 °F 30.65 in Calm   29.0 mph 67 % 0.00 in
18:09 18.6 °F 9.8 °F 30.64 in Calm   29.0 mph 68 % 0.00 in
18:14 18.5 °F 9.7 °F 30.65 in Calm   29.0 mph 68 % 0.00 in
18:19 18.2 °F 10.1 °F 30.65 in SSW 1.0 mph 2.0 mph 70 % 0.00 in
18:24 18.0 °F 10.2 °F 30.66 in Calm   1.0 mph 71 % 0.00 in
18:29 17.8 °F 10.0 °F 30.65 in Calm   29.0 mph 71 % 0.00 in
18:34 17.6 °F 9.8 °F 30.65 in Calm     71 % 0.00 in
18:39 17.4 °F 9.6 °F 30.65 in Calm     71 % 0.00 in
18:44 17.2 °F 9.4 °F 30.65 in Calm     71 % 0.00 in
18:49 17.0 °F 9.5 °F 30.65 in Calm     72 % 0.00 in
18:54 16.8 °F 9.3 °F 30.65 in Calm   29.0 mph 72 % 0.00 in
18:59 16.6 °F 9.4 °F 30.65 in Calm   29.0 mph 73 % 0.00 in
19:04 16.4 °F 9.3 °F 30.65 in Calm   29.0 mph 73 % 0.00 in
19:09 16.2 °F 9.1 °F 30.65 in Calm   29.0 mph 73 % 0.00 in
19:14 16.1 °F 9.3 °F 30.65 in Calm   29.0 mph 74 % 0.00 in
19:19 15.9 °F 9.1 °F 30.65 in Calm   29.0 mph 74 % 0.00 in
19:24 15.7 °F 8.9 °F 30.65 in Calm   29.0 mph 74 % 0.00 in
19:29 15.5 °F 8.7 °F 30.65 in Calm   29.0 mph 74 % 0.00 in
19:34 15.4 °F 8.6 °F 30.65 in Calm   29.0 mph 74 % 0.00 in
19:40 15.2 °F 8.7 °F 30.65 in Calm   29.0 mph 75 % 0.00 in
19:45 15.1 °F 8.6 °F 30.65 in Calm   29.0 mph 75 % 0.00 in
19:50 14.9 °F 8.7 °F 30.65 in Calm   29.0 mph 76 % 0.00 in
19:55 14.8 °F 8.6 °F 30.65 in Calm   29.0 mph 76 % 0.00 in
20:00 14.7 °F 8.5 °F 30.65 in Calm   29.0 mph 76 % 0.00 in
20:05 14.6 °F 8.7 °F 30.65 in Calm   29.0 mph 77 % 0.00 in
20:10 14.5 °F 8.6 °F 30.64 in Calm   29.0 mph 77 % 0.00 in
20:15 14.5 °F 8.9 °F 30.64 in Calm   29.0 mph 78 % 0.00 in
20:20 14.4 °F 9.1 °F 30.64 in Calm   29.0 mph 79 % 0.00 in
20:25 14.5 °F 9.5 °F 30.64 in Calm   29.0 mph 80 % 0.00 in
20:30 14.5 °F 9.7 °F 30.64 in Calm   29.0 mph 81 % 0.00 in
20:35 14.6 °F 9.8 °F 30.63 in Calm   29.0 mph 81 % 0.00 in
20:40 14.7 °F 10.2 °F 30.64 in Calm   29.0 mph 82 % 0.00 in
20:45 14.8 °F 10.3 °F 30.63 in Calm   29.0 mph 82 % 0.00 in
20:50 15.0 °F 10.8 °F 30.63 in Calm   29.0 mph 83 % 0.00 in
20:55 15.1 °F 10.9 °F 30.63 in Calm   29.0 mph 83 % 0.00 in
21:00 15.2 °F 11.0 °F 30.64 in Calm   29.0 mph 83 % 0.00 in
21:06 15.3 °F 11.1 °F 30.64 in Calm   29.0 mph 83 % 0.00 in
21:11 15.3 °F 11.1 °F 30.64 in Calm   29.0 mph 83 % 0.00 in
21:16 15.3 °F 10.8 °F 30.64 in Calm   29.0 mph 82 % 0.00 in
21:21 15.3 °F 10.8 °F 30.64 in Calm   29.0 mph 82 % 0.00 in
21:26 15.3 °F 10.8 °F 30.64 in Calm   29.0 mph 82 % 0.00 in
21:29 15.2 °F 10.7 °F 30.64 in Calm   29.0 mph 82 % 0.00 in
21:34 15.1 °F 10.6 °F 30.65 in Calm   29.0 mph 82 % 0.00 in
21:39 15.0 °F 10.5 °F 30.65 in Calm   29.0 mph 82 % 0.00 in
21:45 15.0 °F 10.5 °F 30.65 in SSW 0.9 mph 29.0 mph 82 % 0.00 in
21:50 14.9 °F 10.4 °F 30.65 in SSW 0.9 mph 29.0 mph 82 % 0.00 in
21:55 14.8 °F 10.3 °F 30.65 in SSW 1.5 mph 29.0 mph 82 % 0.00 in
22:00 14.7 °F 10.2 °F 30.66 in SW 0.9 mph 29.0 mph 82 % 0.00 in
22:05 14.8 °F 10.6 °F 30.66 in SW 1.4 mph 29.0 mph 83 % 0.00 in
22:10 14.8 °F 10.6 °F 30.65 in SW 1.5 mph 29.0 mph 83 % 0.00 in
22:15 14.8 °F 10.6 °F 30.65 in SW 1.2 mph 29.0 mph 83 % 0.00 in
22:20 14.9 °F 10.9 °F 30.65 in SW 2.2 mph 29.0 mph 84 % 0.00 in
22:25 15.0 °F 11.0 °F 30.65 in WSW 1.8 mph 29.0 mph 84 % 0.00 in
22:30 15.2 °F 11.2 °F 30.65 in SW 3.3 mph 29.0 mph 84 % 0.00 in
22:35 15.4 °F 11.4 °F 30.65 in SW 3.0 mph 29.0 mph 84 % 0.00 in
22:40 15.7 °F 11.7 °F 30.66 in WSW 2.6 mph 29.0 mph 84 % 0.00 in
22:45 15.9 °F 11.7 °F 30.66 in SW 2.9 mph 29.0 mph 83 % 0.00 in
22:50 16.2 °F 11.9 °F 30.66 in SW 2.9 mph 29.0 mph 83 % 0.00 in
22:55 16.4 °F 11.9 °F 30.66 in WSW 3.8 mph 29.0 mph 82 % 0.00 in
23:00 16.7 °F 12.2 °F 30.66 in SW 2.9 mph 29.0 mph 82 % 0.00 in
23:06 16.9 °F 12.1 °F 30.66 in SW 2.3 mph 29.0 mph 81 % 0.00 in
23:11 17.0 °F 11.9 °F 30.66 in SW 1.8 mph 29.0 mph 80 % 0.00 in
23:16 17.2 °F 12.1 °F 30.65 in SW 1.1 mph 29.0 mph 80 % 0.00 in
23:21 17.3 °F 11.9 °F 30.65 in SW 1.8 mph 29.0 mph 79 % 0.00 in
23:26 17.4 °F 12.0 °F 30.65 in SW 1.8 mph 29.0 mph 79 % 0.00 in
23:31 17.4 °F 11.7 °F 30.64 in SW 2.1 mph 29.0 mph 78 % 0.00 in
23:36 17.5 °F 11.8 °F 30.64 in SW 2.0 mph 29.0 mph 78 % 0.00 in
23:41 17.5 °F 11.8 °F 30.64 in SW 1.3 mph 29.0 mph 78 % 0.00 in
23:46 17.5 °F 11.8 °F 30.64 in WSW 1.0 mph 29.0 mph 78 % 0.00 in
23:51 17.5 °F 11.5 °F 30.64 in WSW 1.1 mph 29.0 mph 77 % 0.00 in
23:56 17.5 °F 11.5 °F 30.63 in Calm   29.0 mph 77 % 0.00 in
Crab Meadow Weather
Compliments of Weather Underground - 3 mb

Script developed by  Jim McMurry - jmcmurry@mwt.net Adapted for the template by  Wim van der Kuil - Leuven-Template.eu

Astronomy: The light of the Sun takes 8 minutes to reach Earth.